ASIASAT 3S

Last updated on Oct. 21, 2020, 5:57 a.m. UTC

1 25657U 99013A   20294.07582816 -.00000234  00000-0  00000-0 0  9991
2 25657   5.0567  71.6430 0002060 114.3486  17.8128  1.00269760 79101
UTC
Height (km)
Latitude
Longitude
Inclination
Orbital Period
UTC large
Height (km)
Speed (km/s)
/
Latitude / Longitude
Inclination (degrees)
Orbital Period (minutes)
Azimuth
Elevation
Range (km)
Doppler Factor
iOS Compass Heading
iOS Angle

Next 30 passes for location: Hong Kong

Rise time Rise Azimuth (degrees) Set time Set Azimuth (degrees) Duration Max altitude (degrees)

No matching passes for this satellites